RH
34 39 30 31 36 49 60 54 52 48 43 45 45 46 35 29 31 25 22 22 26 25 27 31 38 44 46 30 16 17 39 51 78 82 91 98 96 99 99 98 98 100 98 100
60 67 45 49 40 32 44 58 56 53 44 48 47 42 36 32 30 28 22 23 27 29 33 33 33 39 48 36 17 14 42 57 76 79 76 98 94 95 100 100 85 98 100 98
73 64 77 72 75 59 49 61 60 57 47 46 46 44 36 33 30 24 23 23 23 28 32 33 35 42 49 36 20 13 42 51 65 80 79 86 90 100 100 98 100 100 100 100
74 61 70 74 77 76 68 55 62 62 60 66 53 64 48 35 34 34 24 24 23 23 32 32 38 43 48 38 21 11 26 57 64 70 76 75 78 89 98 100 100 100 100 98
50 50 54 59 49 62 75 64 62 62 64 77 60 62 45 39 34 30 26 25 24 21 26 32 30 45 50 39 22 12 13 32 64 67 72 80 74 82 99 100 100 100 100 100
55 54 49 42 58 74 91 81 62 71 74 78 61 65 51 44 32 31 28 26 26 21 25 34 32 49 48 40 23 12 9 16 29 56 68 73 80 86 81 90 95 93 100 96
60 46 57 73 78 82 98 89 88 90 89 80 47 60 50 34 31 29 27 25 24 23 23 30 28 31 36 44 23 14 7 15 19 29 45 67 75 83 83 81 77 81 97 99
63 63 64 71 76 94 97 92 98 88 95 71 51 57 44 35 30 26 27 25 23 23 26 25 28 33 42 36 23 18 8 11 16 22 31 48 73 80 87 84 80 82 83 92
74 80 79 72 75 93 99 99 90 98 98 99 71 49 36 30 30 28 27 27 23 24 24 25 31 35 44 31 24 21 12 10 14 19 23 29 50 67 79 82 81 80 83 91
77 81 70 73 88 98 92 98 99 98 96 96 65 56 44 30 31 28 29 25 23 24 25 29 33 37 36 33 25 24 23 16 14 19 22 23 27 46 71 77 76 83 88 94
82 83 81 90 83 72 87 99 98 98 91 98 98 77 72 52 46 31 28 26 26 29 32 33 36 40 43 35 27 26 28 28 23 17 21 24 25 26 30 41 60 73 86 91
77 99 94 62 61 76 78 99 99 94 98 85 86 75 93 67 47 37 32 35 33 33 33 37 41 45 52 41 31 26 27 31 32 29 27 26 25 24 26 30 29 33 38 50
71 93 93 61 71 93 99 88 98 99 98 98 96 81 100 80 52 47 40 37 36 41 45 44 47 54 64 48 39 39 28 27 30 37 37 40 43 44 35 28 31 32 35 39
78 77 71 82 80 97 89 97 97 99 99 90 90 81 91 91 66 59 53 41 45 48 50 56 60 69 58 62 61 54 52 46 40 36 37 40 42 44 44 40 35 32 34 35
71 84 73 61 61 74 69 70 90 97 98 99 80 86 100 97 99 85 75 52 50 55 58 66 69 65 66 73 74 71 72 66 59 54 50 45 42 42 42 46 47 45 40 35
76 84 84 65 69 86 99 99 82 76 96 99 98 98 98 99 99 98 79 56 55 63 73 75 77 76 70 63 56 54 53 54 57 56 53 56 57 58 59 60 58 55 55 54
79 96 96 85 57 56 88 83 92 80 84 97 99 89 99 99 99 94 72 63 66 60 58 59 58 56 56 60 62 66 67 61 57 56 55 54 55 54 52 52 51 50 54 58
69 69 88 79 53 97 84 97 98 99 100 97 100 100 98 99 100 95 87 65 65 60 58 58 56 58 60 59 63 62 59 58 56 59 58 58 56 53 52 52 54 50 51 53
51 53 76 70 66 53 67 96 99 98 99 100 99 100 99 99 100 100 92 82 63 57 52 55 56 54 54 54 52 55 55 54 48 48 52 54 56 58 59 59 58 58 56 56
41 44 79 83 86 81 94 97 99 99 99 99 100 98 98 99 97 99 100 92 71 61 54 41 28 28 39 57 63 62 60 58 57 57 52 51 51 52 54 56 57 59 62 58
83 94 93 92 81 59 45 71 98 99 99 100 100 98 96 98 99 99 86 57 45 37 40 31 20 16 13 16 24 31 40 48 55 58 59 58 58 60 55 53 52 56 60 62
84 94 95 95 93 84 72 89 98 98 99 97 97 97 97 97 95 70 48 43 36 32 26 22 17 18 30 42 50 45 40 42 44 44 42 47 54 57 58 59 58 57 56 57
98 92 78 71 73 86 78 95 94 92 96 96 94 98 96 94 72 57 40 38 34 30 26 21 19 19 19 32 38 35 29 28 27 29 30 30 35 40 41 41 43 48 63 67
98 97 91 74 98 99 98 99 87 97 96 86 83 70 66 52 40 36 34 32 31 30 27 24 22 18 17 18 21 25 24 26 28 29 28 27 27 29 32 42 48 48 52 47
98 98 96 95 97 98 98 98 97 97 95 86 75 74 65 52 41 38 36 37 36 34 33 33 31 29 26 26 26 30 29 28 30 34 35 35 36 37 37 40 53 69 70 58
98 98 98 97 98 96 97 94 98 81 86 67 59 52 55 52 46 43 45 45 43 41 37 34 31 29 28 29 29 31 32 31 32 32 35 37 43 47 45 51 70 80 75 63
Wind_Speed
13 19 25 24 30 34 35 29 31 31 27 20 30 33 33 34 33 38 31 35 31 28 24 25 25 24 20 21 18 19 21 8 8 9 14 14 24 26 29 28 23 41 43 29
14 21 15 14 18 23 28 33 38 36 29 25 29 38 38 31 31 30 26 30 29 32 29 24 19 19 19 20 17 16 11 8 6 5 5 16 24 24 36 31 29 33 40 34
16 11 4 12 21 25 28 28 31 28 29 33 29 42 37 29 23 26 26 25 26 36 34 25 16 18 16 18 16 13 5 8 7 5 5 12 20 27 26 33 37 33 36 32
17 19 21 22 25 22 33 28 26 27 23 23 14 13 31 28 27 23 29 30 34 28 38 26 16 16 13 16 15 12 7 7 7 7 5 7 15 26 31 31 26 28 30 27
8 10 13 17 20 17 34 28 26 26 24 24 30 11 42 29 29 23 22 19 28 28 36 29 17 17 14 14 14 11 6 4 8 8 9 8 9 14 31 39 35 31 30 28
18 16 17 16 17 15 21 26 28 23 19 12 30 10 31 34 30 29 29 26 19 34 33 28 18 18 18 15 13 9 6 2 5 9 11 10 9 12 15 26 33 33 32 24
17 14 11 13 16 14 18 10 6 6 7 9 16 16 34 26 25 30 24 16 23 34 34 29 20 15 16 14 13 8 5 2 1 4 10 14 12 15 12 13 22 27 27 30
6 2 4 7 11 9 26 22 6 5 4 8 23 13 27 30 36 33 19 16 21 31 35 24 18 11 11 13 13 8 5 3 2 2 2 8 15 16 16 16 18 15 17 23
5 6 5 17 14 10 13 20 24 6 5 4 7 11 29 34 27 25 23 19 13 32 28 22 17 9 9 15 12 9 6 5 4 3 2 0 6 11 13 18 18 15 16 23
7 7 8 10 8 10 24 8 12 8 3 3 5 7 11 16 21 25 19 24 21 23 23 22 11 8 12 16 14 10 6 5 5 4 4 5 4 5 11 17 15 16 14 17
16 15 7 9 9 11 13 26 10 7 7 2 3 2 17 8 11 16 27 22 19 23 22 17 10 7 8 15 16 12 8 6 4 4 4 4 6 7 6 7 11 13 15 16
6 5 8 19 19 18 15 19 19 9 5 11 3 8 14 10 4 17 19 20 19 22 19 16 12 8 5 12 18 15 12 8 6 5 5 3 3 4 6 7 8 10 10 12
1 2 4 9 3 13 14 15 15 20 16 14 7 6 6 12 13 13 16 19 20 20 22 19 14 9 6 10 16 15 15 12 10 8 8 6 5 4 4 5 7 7 8 10
9 6 7 8 12 14 22 19 17 18 13 21 22 12 19 9 14 20 17 17 19 23 24 25 23 17 12 9 9 9 9 13 15 14 13 12 11 10 10 10 10 11 13 13
13 9 12 12 17 20 26 27 25 29 26 14 20 20 13 20 2 13 17 17 19 20 20 24 25 22 19 17 15 12 10 8 7 11 17 17 17 17 18 17 17 17 19 19
10 9 10 14 8 11 20 28 31 31 29 29 34 20 16 11 21 5 11 13 15 19 20 17 17 12 12 19 15 14 12 10 10 10 12 14 15 16 18 20 23 24 24 25
12 7 6 7 18 25 20 13 18 26 26 26 36 38 30 14 21 18 11 17 16 17 20 19 15 10 5 6 6 10 16 19 19 19 19 18 17 17 16 17 17 19 22 27
16 15 12 13 19 4 5 14 13 10 12 16 24 20 20 27 23 25 22 15 20 19 15 17 16 14 15 15 15 16 18 17 18 17 19 22 24 25 25 25 23 24 24 22
22 21 12 6 9 21 16 11 2 8 10 25 25 19 32 28 27 24 15 18 13 11 11 13 16 14 14 12 15 18 20 21 22 24 26 29 27 28 29 29 30 30 31 30
20 26 23 9 5 4 10 19 6 10 4 16 21 21 25 28 27 22 14 7 5 6 5 4 4 7 10 15 20 25 28 20 18 17 20 23 25 26 28 27 26 28 29 34
13 23 29 24 12 13 19 25 9 2 9 16 20 22 25 19 19 17 10 4 0 1 4 7 8 9 13 14 13 13 15 18 21 23 25 29 31 30 32 35 35 34 35 38
15 15 20 21 13 12 10 12 4 11 19 13 11 18 16 9 10 10 4 2 4 7 8 9 11 10 10 9 9 9 10 12 14 14 17 21 25 30 33 31 33 37 42 44
13 25 16 15 13 17 14 14 6 4 4 12 7 8 5 7 4 3 3 4 5 8 10 12 12 12 12 13 13 14 15 16 16 18 19 19 19 20 19 21 25 29 33 34
9 20 10 15 11 17 12 18 12 12 19 16 12 8 5 2 1 3 7 9 11 11 11 13 14 14 14 15 15 15 16 17 18 19 20 21 23 25 26 28 28 29 28 27
4 10 21 19 17 26 20 19 17 19 12 8 6 2 2 3 4 7 8 10 11 11 12 12 13 14 14 15 17 17 19 21 22 24 25 26 27 29 30 32 33 32 32 31
12 14 20 12 8 19 19 12 12 9 7 3 2 1 2 4 6 8 9 9 10 10 12 13 13 14 15 16 18 20 21 23 25 27 28 29 29 29 31 31 30 30 30 29
Wind_Direction
241 236 235 242 247 250 256 251 255 255 254 261 253 281 270 268 276 260 253 251 241 250 254 260 264 271 282 298 311 309 310 241 210 243 276 222 203 203 198 188 192 189 200 195
230 245 255 255 251 250 254 258 259 270 255 281 283 285 274 266 255 261 232 228 239 246 246 248 256 265 275 297 310 317 298 206 212 255 267 195 191 206 200 194 188 195 211 214
234 235 234 254 252 251 245 260 262 267 270 272 284 283 270 250 262 236 229 238 244 245 242 243 255 257 266 295 306 317 237 209 217 247 289 207 195 184 198 201 191 213 210 206
247 254 255 254 254 258 258 245 259 263 274 282 262 281 265 243 258 261 233 243 247 245 239 241 242 245 256 292 300 309 288 223 215 213 200 186 189 196 187 192 206 200 203 216
235 256 259 256 270 286 249 250 253 250 276 290 273 269 268 258 255 248 240 250 244 235 236 232 241 234 246 280 288 297 295 215 198 201 200 184 179 197 200 211 209 214 216 213
263 271 279 288 287 285 246 248 241 262 280 263 255 230 271 260 256 250 238 248 270 230 233 226 229 225 242 268 271 281 281 252 170 191 207 208 210 203 204 206 209 213 209 208
273 278 287 288 295 278 227 219 215 243 222 244 255 223 245 256 262 248 253 273 259 222 222 218 222 237 253 263 250 261 251 265 141 180 204 204 208 208 205 214 209 200 200 208
253 247 271 325 309 273 219 207 233 202 207 256 240 234 241 261 273 257 247 276 247 217 211 218 227 229 239 236 230 234 215 178 130 116 212 203 207 208 212 208 198 215 199 194
213 258 229 322 311 275 197 215 227 288 274 281 251 259 259 251 260 256 231 246 219 201 209 219 216 228 217 218 218 214 205 182 155 125 107 168 202 198 200 197 202 205 190 191
243 265 276 298 286 261 225 215 203 206 242 248 273 260 244 219 259 242 227 204 202 199 205 206 208 222 200 209 211 208 199 191 177 155 125 112 112 170 185 199 208 216 214 205
246 244 258 260 256 272 263 230 203 199 227 304 306 263 17 212 304 189 192 204 199 193 192 199 206 204 196 207 207 210 201 188 190 182 167 140 126 129 160 184 200 210 215 215
244 246 257 287 296 278 279 223 227 213 205 233 306 285 11 171 66 151 179 178 188 194 195 192 205 206 214 208 209 214 214 209 202 205 192 176 161 143 145 164 174 192 201 211
303 257 309 323 7 245 248 264 251 234 224 227 198 249 242 126 133 137 163 168 180 171 179 197 202 207 228 197 205 215 219 222 222 217 219 209 203 212 207 195 194 208 215 219
321 277 267 253 275 306 290 275 262 250 221 226 229 235 270 107 114 110 115 165 159 163 172 184 197 194 191 182 190 198 211 226 229 231 234 238 243 244 245 246 242 235 235 236
298 276 300 297 296 278 282 281 273 278 261 223 242 243 253 253 132 106 115 138 149 168 173 186 196 198 201 197 194 193 182 171 176 211 236 241 244 249 253 255 255 252 253 250
280 273 296 306 333 316 270 271 276 270 261 260 237 231 215 247 237 153 129 141 144 141 152 165 185 199 223 224 222 217 211 205 231 235 213 225 235 246 253 254 256 258 260 261
280 253 317 285 317 315 285 281 280 265 264 248 228 230 236 203 181 169 151 173 167 166 158 162 164 175 208 229 239 243 246 245 247 249 260 261 255 248 248 255 260 261 262 260
260 275 282 293 323 262 297 298 257 256 215 226 211 210 228 167 151 181 179 169 186 196 181 196 208 212 220 230 247 265 277 275 268 264 266 263 264 266 268 269 272 266 264 270
256 254 248 259 271 299 303 322 201 202 73 184 203 171 153 126 144 139 164 188 189 150 163 205 232 230 229 235 241 250 252 257 265 267 267 267 264 263 264 267 268 272 273 273
253 244 236 241 270 256 303 319 337 219 66 135 163 163 163 153 150 130 129 142 126 121 148 201 234 243 261 264 259 255 256 257 252 257 263 272 272 275 271 267 266 265 268 269
246 225 224 229 248 266 284 300 307 183 126 159 185 207 190 188 157 138 118 119 161 310 249 254 269 263 258 256 262 264 267 266 265 264 264 261 268 275 274 269 267 268 271 276
253 214 214 225 236 257 273 277 347 150 134 77 105 114 114 90 68 74 105 143 296 310 316 308 301 281 272 265 259 269 274 275 275 272 267 265 265 266 268 271 273 273 271 270
225 209 194 207 229 267 285 257 124 63 317 123 115 114 78 79 71 358 309 308 302 300 296 295 293 296 284 276 271 272 274 274 275 277 280 281 280 280 280 280 280 277 271 270
151 187 202 187 141 182 194 163 198 208 137 118 124 125 134 148 243 279 289 296 301 301 299 297 294 290 289 284 282 283 283 283 284 287 288 289 292 292 292 293 293 294 293 291
166 185 216 174 150 142 158 151 121 124 121 127 135 122 231 239 293 299 294 294 296 296 294 291 290 290 289 291 293 295 295 295 294 294 293 294 294 296 294 291 291 290 290 291
62 146 151 143 133 121 119 112 102 88 101 68 91 243 314 312 302 294 294 298 300 301 302 305 306 304 302 299 298 298 298 299 298 297 296 294 293 292 296 295 290 286 284 281